Regional Weather Roundup
Issued by NWS

Home | Current Version | Previous Version | Text Only | Print | Product List | Glossary Off
Versions: 1 2 3 4 5 6 7 8 9 10 11 12 13 14 15 16 17 18 19 20 21 22 23 24 25 26 27 28 29 30 31 32 33 34 35 36 37 38 39 40 41 42 43 44 45 46 47 48 49 50

000
ASUS43 KLOT 250404
RWRIL

ILLINOIS REGIONAL WEATHER ROUNDUP
NATIONAL WEATHER SERVICE CHICAGO/ROMEOVILLE IL
1100 PM CDT MON APR 24 2017

NOTE: "FAIR" INDICATES FEW OR NO CLOUDS BELOW 12,000 FEET WITH NO
SIGNIFICANT WEATHER AND/OR OBSTRUCTIONS TO VISIBILITY.

* THESE STATIONS ARE NOT UNDER NWS QUALITY CONTROL. THEY ALSO MAY NOT
  REPORT WEATHER SUCH AS PRECIPITATION OR FOG.

ILZ001-002-007-009-015-016-024-250500-
NORTHWEST ILLINOIS

CITY           SKY/WX    TMP DP  RH WIND       PRES   REMARKS
MOLINE           N/A     62  30  29 MISG      29.68R
STERLING*      PTCLDY    62  32  32 SE7       29.71S
SAVANNA*       PTCLDY    65  29  26 SE12      29.69S
$$

ILZ003-004-008-010-011-017-018-250500-
NORTH CENTRAL ILLINOIS

CITY           SKY/WX    TMP DP  RH WIND       PRES   REMARKS
ROCKFORD       CLOUDY    60  32  34 SE10      29.74F
FREEPORT*      CLOUDY    58  34  40 SE14      29.74S
ROCHELLE*      PTCLDY    55  34  45 SE10      29.73F
DE KALB*       CLOUDY    54  33  45 E10       29.75F
PERU*          CLEAR     61  32  33 SE10      29.74S
$$

ILZ005-006-012>014-019>023-250500-
NORTHEAST ILLINOIS

CITY           SKY/WX    TMP DP  RH WIND       PRES   REMARKS
CHICAGO-OHARE  PTCLDY    53  36  52 NE3       29.76F
CHICAGO-MIDWAY PTCLDY    60  39  45 SE5       29.77S
AURORA         CLOUDY    55  35  47 E7        29.76F
LANSING*       CLEAR     59  41  51 SE8       29.77S
JOLIET*        CLEAR     58  38  48 E6        29.76S
WAUKEGAN       CLOUDY    53  37  54 SE6       29.77F
DUPAGE AIRPORT CLOUDY    54  34  46 CALM      29.76S
KANKAKEE*      CLEAR     59  38  45 E7        29.76S
WHEELING       CLEAR     50  38  63 CALM      29.78F
MORRIS*        CLEAR     58  36  44 CALM      29.74S
NORTHERLY ISL    N/A     55  42  61 CALM        N/A
$$

LMZ740>746-250500-
SOUTHERN LAKE MICHIGAN

STATION/POSITION SKY/WX   TEMP    WIND        PRES    VSBY  WAVE
                          AIR SEA DIR/SP/G                  HT/PER
                          (F)     (DEG/KT/KT) (MB)    (MI)  (FT/S)
SOUTHERN BUOY              49 42   90/ 10/ 10 1009.3          1
HARRISON CRIB              58     120/ 17/ 18   N/A
BURNHAM HARBOR             55     100/  4/ 10   N/A
CALUMET HARBOR             59      90/  4/  8 1007.6F
BURNS HARBOR               63     110/ 11/ 15 1008.5F
MICHIGAN CITY              62      90/ 11/ 14   N/A
ST. JOSEPH                 59 52  130/ 12/ 14 1009.0F         1
$$

ILZ025>027-034>036-040-047-049-050-058-095>099-250500-
WEST-CENTRAL ILLINOIS

CITY           SKY/WX    TMP DP  RH WIND       PRES   REMARKS
QUINCY         CLEAR     60  33  36 SE8       29.67F
GALESBURG*     PTCLDY    60  30  32 SE3       29.69R
MACOMB*        CLEAR     57  30  35 S7        29.72R
JACKSONVILLE*  CLEAR     58  32  37 SE5       29.70S
PITTSFIELD*    CLEAR     62  34  36 SE6       29.71R
$$

ILZ028>032-037-038-041>044-048-051>054-059>061-250500-
CENTRAL ILLINOIS

CITY           SKY/WX    TMP DP  RH WIND       PRES   REMARKS
PONTIAC        CLEAR     55  37  50 SE6       29.75S
BLOOMINGTON    CLEAR     60  34  37 SE8       29.75R
DECATUR        CLEAR     51  37  58 S6        29.72F
PEORIA         CLEAR     63  29  27 SE8       29.71F
LACON*         CLEAR     60  32  35 SE6       29.71F
LINCOLN*       CLEAR     53  35  50 CALM      29.72F
SPRINGFIELD    CLEAR     61  32  33 S8        29.71F
TAYLORVILLE    CLEAR     57  34  41 SE5       29.73R
$$

ILZ033-039-045-046-055>057-062-063-250500-
EAST-CENTRAL ILLINOIS

CITY           SKY/WX    TMP DP  RH WIND       PRES   REMARKS
CHAMPAIGN      CLEAR     56  35  45 E6        29.74S
RANTOUL*       CLEAR     61  40  44 E6        29.74S
MATTOON        CLEAR     55  46  71 SE3       29.73S
PARIS*         CLEAR     57  42  57 CALM      29.75R
$$

ILZ079-100>102-250500-
SOUTHWEST ILLINOIS

CITY           SKY/WX    TMP DP  RH WIND       PRES   REMARKS
ALTON          CLEAR     53  38  57 SE6       29.71F
BELLEVILLE     CLEAR     57  43  59 CALM      29.71S
CAHOKIA*       CLEAR     57  41  55 SE6       29.71S
SPARTA*        CLEAR     56  44  63 SE3       29.74S
$$

ILZ064>066-069>071-074>076-080>082-084>086-088>090-092>094-250500-
SOUTH-CENTRAL ILLINOIS

CITY           SKY/WX    TMP DP  RH WIND       PRES   REMARKS
CARBONDALE     CLEAR     54  51  90 SE5       29.73F
CAIRO*         CLEAR     57  54  87 CALM      29.74F
EFFINGHAM*     CLEAR     52  47  83 CALM      29.74F
MARION         CLEAR     55  52  88 CALM      29.75S
MT. VERNON     CLEAR     48  47  96 CALM      29.74S
CENTRALIA*     CLEAR     53  47  82 SE3       29.72F
SALEM*         PTCLDY    57  42  58 CALM      29.74F
METROPOLIS*    CLEAR     62  55  76 S5        29.76S
$$

ILZ067-068-072-073-078-083-087-091-250500-
SOUTHEAST ILLINOIS

CITY           SKY/WX    TMP DP  RH WIND       PRES   REMARKS
LAWRENCEVILLE  CLEAR     60  50  69 CALM      29.74S
FLORA*         CLEAR     55  45  69 CALM      29.74S
FAIRFIELD*     CLEAR     53  48  82 CALM      29.74R
HARRISBURG*    CLEAR     55  51  88 CALM      29.74S
ROBINSON*      CLEAR     53  45  72 CALM      29.74S
CARMI*         CLEAR     55  53  90 CALM      29.74S
$$

ABBREVIATIONS USED IN REMARKS
   TC - TEMPERATURE IN CELSIUS
  WCI - WIND CHILL INDEX
   HX - HEAT INDEX
  VSB - VISIBILITY
$$





USA.gov is the U.S. government's official web portal to all federal, state and local government web resources and services.